Chester, CT

1:39 PM EST on November 18, 2019 (GMT -0500)
Chester

Weather History for KSNC - October, 2019

Change the Weather History Date:

Monday, October 21, 2019

  Actual Average (WUND) Record (WUND)
Temperature  
Mean Temperature 58 °F -  
Max Temperature 68 °F - - (-1)
Min Temperature 48 °F - - (-1)
Degree Days  
Heating Degree Days 7    
Growing Degree Days 8 (Base 50)    
Moisture  
Dew Point 45 °F    
Average Humidity 71    
Maximum Humidity 100    
Minimum Humidity 35    
Precipitation  
Precipitation 0.00 in - - ()
Sea Level Pressure  
Sea Level Pressure 30.06 in    
Wind  
Wind Speed 6 mph ()    
Max Wind Speed 13 mph    
Max Gust Speed 15 mph    
Visibility 9.8 miles    
Events Rain    
Averages and records for this station are not official NWS values.
T = Trace of Precipitation, MM = Missing Value Source: Averaged Metar Reports

Daily Weather History Graph

Daily Weather History Graph

Search for Another Location

Airport or City:

Astronomy

Oct. 21, 2019 Rise Set
Actual Time 7:08 AM EDT 6:00 PM EDT
Civil Twilight 6:40 AM EDT 6:28 PM EDT
Nautical Twilight 6:08 AM EDT 7:00 PM EDT
Astronomical Twilight 5:35 AM EDT 7:32 PM EDT
Moon No Moon Rise 2:26 PM EDT (10/21)
Length of Visible Light 11h 48m
Length of Day
10h 52m
Waning Gibbous, 48% of the Moon is Illuminated
Oct 21
Waning Gibbous
Oct 27
New
Nov 4
First Quarter
Nov 12
Full
Nov 19
Last Quarter

Hourly Weather History & Observations

Time (EDT) Temp. Dew Point Humidity Pressure Visibility Wind Dir Wind Speed Gust Speed Precip Events Conditions
12:15 AM 50.0 °F 50.0 °F 100% 30.01 in 7.0 mi North 5.8 mph - N/A Rain Light Rain
12:35 AM 50.0 °F 50.0 °F 100% 30.01 in 5.0 mi NE 4.6 mph - N/A Rain Light Rain
12:55 AM 50.0 °F 50.0 °F 100% 30.01 in 7.0 mi NNE 5.8 mph - N/A Rain Light Rain
1:15 AM 50.0 °F 48.2 °F 94% 30.01 in 8.0 mi Variable 5.8 mph - N/A Rain Light Rain
1:35 AM 50.0 °F 48.2 °F 94% 30.00 in 10.0 mi NNE 6.9 mph 12.7 mph N/A Rain Light Rain
1:55 AM 50.0 °F 48.2 °F 94% 29.99 in 10.0 mi NE 6.9 mph - N/A   Overcast
2:15 AM 50.0 °F 50.0 °F 100% 30.00 in 10.0 mi North 6.9 mph - N/A   Mostly Cloudy
2:35 AM 50.0 °F 50.0 °F 100% 30.00 in 10.0 mi North 6.9 mph - N/A   Scattered Clouds
2:55 AM 50.0 °F 50.0 °F 100% 29.98 in 10.0 mi NNE 4.6 mph - N/A   Mostly Cloudy
3:15 AM 50.0 °F 48.2 °F 94% 29.98 in 10.0 mi NNE 8.1 mph - N/A   Mostly Cloudy
3:35 AM 50.0 °F 48.2 °F 94% 29.98 in 10.0 mi North 6.9 mph - N/A   Overcast
3:55 AM 50.0 °F 48.2 °F 94% 29.98 in 10.0 mi North 8.1 mph - N/A   Overcast
4:15 AM 50.0 °F 48.2 °F 94% 29.99 in 10.0 mi NNE 8.1 mph - N/A   Overcast
4:35 AM 50.0 °F 48.2 °F 94% 30.00 in 10.0 mi North 5.8 mph - N/A   Overcast
4:55 AM 50.0 °F 48.2 °F 94% 30.00 in 10.0 mi North 5.8 mph 13.8 mph N/A   Overcast
5:15 AM 50.0 °F 48.2 °F 94% 30.01 in 10.0 mi North 6.9 mph - N/A   Mostly Cloudy
5:35 AM 50.0 °F 48.2 °F 94% 30.01 in 10.0 mi North 9.2 mph - N/A   Mostly Cloudy
5:55 AM 50.0 °F 48.2 °F 94% 30.01 in 10.0 mi North 9.2 mph - N/A   Scattered Clouds
6:15 AM 48.2 °F 46.4 °F 93% 30.02 in 10.0 mi North 6.9 mph - N/A   Clear
6:35 AM 48.2 °F 46.4 °F 93% 30.02 in 10.0 mi NNE 5.8 mph 11.5 mph N/A   Clear
6:55 AM 48.2 °F 46.4 °F 93% 30.03 in 10.0 mi North 5.8 mph 11.5 mph N/A   Clear
7:15 AM 48.2 °F 46.4 °F 93% 30.03 in 10.0 mi North 8.1 mph - N/A   Clear
7:35 AM 48.2 °F 46.4 °F 93% 30.04 in 10.0 mi North 9.2 mph - N/A   Clear
7:55 AM 50.0 °F 46.4 °F 87% 30.04 in 10.0 mi NNE 9.2 mph - N/A   Clear
8:15 AM 51.8 °F 46.4 °F 82% 30.05 in 10.0 mi NNE 6.9 mph 13.8 mph N/A   Clear
8:35 AM 51.8 °F 46.4 °F 82% 30.05 in 10.0 mi NNE 8.1 mph - N/A   Clear
8:55 AM 53.6 °F 46.4 °F 77% 30.05 in 10.0 mi NNE 6.9 mph - N/A   Clear
9:15 AM 55.4 °F 46.4 °F 72% 30.06 in 10.0 mi NNE 10.4 mph - N/A   Clear
9:35 AM 55.4 °F 46.4 °F 72% 30.05 in 10.0 mi Variable 6.9 mph 13.8 mph N/A   Clear
9:55 AM 57.2 °F 46.4 °F 67% 30.06 in 10.0 mi NNE 8.1 mph 15.0 mph N/A   Clear
10:15 AM 57.2 °F 46.4 °F 67% 30.06 in 10.0 mi NNE 11.5 mph - N/A   Clear
10:35 AM 59.0 °F 46.4 °F 63% 30.05 in 10.0 mi NNE 10.4 mph - N/A   Clear
10:55 AM 60.8 °F 46.4 °F 59% 30.06 in 10.0 mi Variable 6.9 mph - N/A   Clear
11:15 AM 60.8 °F 46.4 °F 59% 30.06 in 10.0 mi North 8.1 mph 15.0 mph N/A   Clear
11:35 AM 60.8 °F 44.6 °F 55% 30.06 in 10.0 mi NNE 11.5 mph - N/A   Clear
11:55 AM 62.6 °F 42.8 °F 48% 30.06 in 10.0 mi NNE 12.7 mph - N/A   Clear
12:15 PM 62.6 °F 42.8 °F 48% 30.06 in 10.0 mi North 12.7 mph - N/A   Clear
12:35 PM 64.4 °F 42.8 °F 45% 30.06 in 10.0 mi North 6.9 mph 15.0 mph N/A   Clear
12:55 PM 64.4 °F 42.8 °F 45% 30.06 in 10.0 mi NNE 9.2 mph - N/A   Clear
1:15 PM 66.2 °F 41.0 °F 40% 30.06 in 10.0 mi NE 10.4 mph - N/A   Clear
1:35 PM 66.2 °F 41.0 °F 40% 30.05 in 10.0 mi NNE 8.1 mph - N/A   Clear
1:55 PM 66.2 °F 39.2 °F 37% 30.05 in 10.0 mi NE 10.4 mph - N/A   Clear
2:15 PM 68.0 °F 39.2 °F 35% 30.05 in 10.0 mi NNE 9.2 mph - N/A   Clear
2:35 PM 68.0 °F 39.2 °F 35% 30.05 in 10.0 mi NE 10.4 mph - N/A   Clear
3:15 PM 68.0 °F 39.2 °F 35% 30.05 in 10.0 mi NNE 6.9 mph - N/A   Clear
3:35 PM 68.0 °F 39.2 °F 35% 30.06 in 10.0 mi NNE 8.1 mph - N/A   Clear
3:55 PM 68.0 °F 41.0 °F 37% 30.05 in 10.0 mi ENE 8.1 mph - N/A   Clear
4:15 PM 68.0 °F 41.0 °F 37% 30.07 in 10.0 mi Variable 4.6 mph - N/A   Clear
4:35 PM 68.0 °F 42.8 °F 40% 30.09 in 10.0 mi East 4.6 mph - N/A   Clear
4:55 PM 66.2 °F 42.8 °F 43% 30.08 in 10.0 mi Calm Calm - N/A   Clear
5:15 PM 66.2 °F 42.8 °F 43% 30.09 in 10.0 mi NE 3.5 mph - N/A   Clear
5:35 PM 64.4 °F 44.6 °F 49% 30.09 in 10.0 mi ENE 3.5 mph - N/A   Clear
5:55 PM 62.6 °F 44.6 °F 52% 30.10 in 10.0 mi Calm Calm - N/A   Clear
6:15 PM 59.0 °F 46.4 °F 63% 30.10 in 10.0 mi Calm Calm - N/A   Clear
6:35 PM 55.4 °F 46.4 °F 72% 30.10 in 10.0 mi Calm Calm - N/A   Clear
6:55 PM 57.2 °F 46.4 °F 67% 30.11 in 10.0 mi ENE 4.6 mph - N/A   Clear
7:15 PM 55.4 °F 46.4 °F 72% 30.11 in 10.0 mi Calm Calm - N/A   Clear
7:35 PM 53.6 °F 46.4 °F 77% 30.12 in 10.0 mi Calm Calm - N/A   Clear
7:55 PM 53.6 °F 46.4 °F 77% 30.12 in 10.0 mi Calm Calm - N/A   Clear
8:15 PM 55.4 °F 46.4 °F 72% 30.12 in 10.0 mi ENE 3.5 mph - N/A   Clear
8:35 PM 55.4 °F 46.4 °F 72% 30.12 in 10.0 mi Calm Calm - N/A   Clear
8:55 PM 53.6 °F 46.4 °F 77% 30.14 in 10.0 mi Calm Calm - N/A   Clear
9:15 PM 53.6 °F 44.6 °F 72% 30.15 in 10.0 mi NE 3.5 mph - N/A   Clear
9:35 PM 53.6 °F 44.6 °F 72% 30.14 in 10.0 mi ENE 5.8 mph - N/A   Clear
9:55 PM 51.8 °F 44.6 °F 76% 30.15 in 10.0 mi Variable 3.5 mph - N/A   Clear
10:15 PM 51.8 °F 42.8 °F 71% 30.14 in 10.0 mi Variable 4.6 mph - N/A   Clear
10:35 PM 51.8 °F 42.8 °F 71% 30.13 in 10.0 mi NE 4.6 mph - N/A   Clear
10:55 PM 51.8 °F 41.0 °F 67% 30.12 in 10.0 mi Variable 4.6 mph - N/A   Clear
11:15 PM 50.0 °F 41.0 °F 71% 30.12 in 10.0 mi Variable 4.6 mph - N/A   Clear
11:35 PM 50.0 °F 39.2 °F 66% 30.14 in 10.0 mi Calm Calm - N/A   Clear
11:55 PM 48.2 °F 41.0 °F 76% 30.14 in 10.0 mi NNW 3.5 mph - N/A   Clear